Simultaneous Nadir Overpasses (SNOs) Predictions

Prediction of SNOs between AQUA and NPP Satellite Orbit:

Table of predicted SNOs for the next 14.0 days since TLE Epoch: 1/29/2012
Index Date (AQUA) Time (AQUA) Lat,Lon (AQUA) SZA (AQUA ) Date (NPP) Time (NPP) Lat,Lon (NPP) SZA (NPP ) Distance(km) Time Diff (sec)
1 01/30/2012 06:21:20 76.33, -35.31 114.91 01/30/2012 06:20:37 76.33, -35.26 114.93 1.69 43
2 01/30/2012 07:10:26 -77.34, 135.96 66.29 01/30/2012 07:11:00 -77.34, 136.08 66.34 2.84 34
3 02/01/2012 22:38:04 76.24, 80.24 114.30 02/01/2012 22:37:33 76.24, 80.17 114.35 2.18 31
4 02/01/2012 23:27:11 -77.22,-108.68 66.85 02/01/2012 23:27:57 -77.21,-108.73 66.88 1.33 46
5 02/04/2012 14:54:48 76.37,-163.55 113.41 02/04/2012 14:54:23 76.36,-163.61 113.45 1.85 25
6 02/04/2012 15:43:56 -77.30, 7.44 67.70 02/04/2012 15:44:48 -77.29, 7.39 67.73 1.29 52
7 02/07/2012 07:11:33 76.75, -46.47 112.19 02/07/2012 07:11:08 76.75, -46.37 112.18 2.72 25
8 02/07/2012 08:00:50 -77.25, 123.04 68.43 02/07/2012 08:01:43 -77.24, 122.93 68.45 2.99 53
9 02/09/2012 23:28:36 76.52, 68.49 111.63 02/09/2012 23:28:07 76.52, 68.49 111.66 0.22 29




NCC Satellite Simultaneous Nadir Overpasses (SNOs) Prediction Service
